[Iaude] MPEC D109: 2024 AW3 [a=1.49,e=0.46,i=33.0,H=21.76]
    mpec at cfa.harvard.edu 
    mpec at cfa.harvard.edu
       
    Thu Feb 22 09:12:30 EST 2024
    
    
  
M.P.E.C. 2024-D109                            Issued 2024 February 22, 14:11 UT
     The Minor Planet Electronic Circulars contain information on unusual
         minor planets, routine data on comets and natural satellites,
         and occasional editorial announcements.  They are published
    on behalf of Division F of the International Astronomical Union by the
          Minor Planet Center, Smithsonian Astrophysical Observatory,
                          Cambridge, MA 02138, U.S.A.
			  
             Prepared using the Tamkin Foundation Computer Network
                              MPC at CFA.HARVARD.EDU
            URL https://www.minorplanetcenter.net/    ISSN 1523-6714
                                    2024 AW3                                    
                           Revision to MPEC 2024-A147                           
Additional Observations:
     K24A03W  C2015 01 18.52215510 10 47.506-11 34 13.14         21.42GVED109F51
     K24A03W  C2015 01 18.53445510 10 43.471-11 34 48.32         21.12GVED109F51
     K24A03W  C2015 01 18.54673910 10 39.446-11 35 23.57         21.25GVED109F51
     K24A03W  C2015 01 18.55900610 10 35.428-11 35 58.66         21.14GVED109F51
     K24A03W  C2015 01 20.48457 10 00 26.394-13 03 48.41         21.5 wLED109F51
     K24A03W  C2015 01 20.49774 10 00 22.074-13 04 23.18         21.7 wLED109F51
     K24A03W  C2015 01 20.52400 10 00 13.591-13 05 31.46         21.9 wLED109F51
     K24A03W  C2015 01 24.45010209 39 58.744-15 39 35.22         21.44GVED109F51
     K24A03W  C2015 01 24.46139909 39 55.231-15 39 58.95         21.31GVED109F51
     K24A03W  C2015 01 24.48401409 39 48.197-15 40 46.25         21.52GVED109F51
Observer details:
F51 Pan-STARRS 1, Haleakala.  Observers J. Herman, T. Lowe, P. Minguez, A.
    Schultz, I. Smith, B. Gibson, T. Goggia, N. Primak, M. Willman.  Measurers
    K. Chambers, T. de Boer, J. Fairlamb, H. Gao, M. Huber, C.-C. Lin, E.
    Magnier, Y. Ramanjooloo, R. Wainscoat, R. Weryk, S. Chastel, L. Denneau,
    H. Flewelling, E. Schunova, C. Waters.  1.8-m Ritchey-Chretien + CCD.
First and last observations above in comparison with prediction:
Residuals in seconds of arc (or two decimals in degrees), reference and Delta-T
150118 F51 2.89+ 3.42+    150124 F51 3.63+ 2.97+    MPO793571   -0.02 days
Orbital elements:
2024 AW3                                                 Earth MOID = 0.1207 AU
Epoch 2024 Mar. 31.0 TT = JDT 2460400.5                 Veres                   
M  75.59467              (2000.0)            P               Q                  
n   0.54446965     Peri.   91.12151     +0.72624216     -0.49499180             
a   1.4853208      Node   298.72998     +0.16938040     +0.80137350             
e   0.4631396      Incl.   32.95612     +0.66624515     +0.33583275             
P   1.81           H   21.76          G   0.15           U   0                  
Residuals in seconds of arc
150118 F51  0.2+  0.1+    240112 J22  0.0   0.0     240116 033  0.0   0.0
150118 F51  0.1+  0.1+    240112 J22  0.0   0.1-    240116 033  0.2+  0.3+
150118 F51  0.0   0.0     240112 J22  0.3-  0.1+    240116 033  0.1+  0.1+
150118 F51  0.0   0.1-    240112 372  0.4+  0.6-    240116 Z80  0.2-  0.1+
150120 F51  0.3+  0.1-    240112 372  0.4+  1.0-    240116 Z80  0.6-  0.2-
150120 F51  0.4-  0.3-    240112 372  0.1+  0.2-    240116 Z80  0.0   0.2+
150120 F51  0.2+  0.1+    240112 L06  0.5+  0.1-    240117 Z80  0.3+  0.4+
150124 F51  0.2-  0.1-    240112 L06  0.3+  0.0     240117 Z80  0.8+  0.2+
150124 F51  0.1-  0.1-    240112 L06  0.2+  0.1-    240117 Z80  0.5+  0.2-
150124 F51  0.0   0.1+    240112 K78  0.0   0.2+    240118 T08  0.0   0.2-
240111 703  0.2+  0.5-    240112 K78  0.3+  0.1+    240118 T08  0.4-  0.3+
240111 703  1.1-  0.6+    240112 K78  0.7+  0.4+    240118 T08  0.4+  0.2+
240111 703  0.5-  0.3+    240112 L90 (0.0   3.5-)   240118 T08  0.5-  0.1-
240111 703  0.4+  0.7+    240112 L90  0.2+  1.3+    240118 Z80  0.4-  0.7+
240111 703  0.3-  0.1+    240112 L90  0.1-  0.5-    240118 Z80  0.3+  0.1+
240111 703  0.2-  0.7+    240112 L04  0.0   0.1+    240118 Z80  0.8+  0.0
240111 703  0.7+  0.3+    240112 L04  0.2+  0.5+    240118 Y98  0.1-  0.4-
240111 K35  0.0   0.0     240112 L04  0.2-  0.5+    240119 L87  0.3-  0.3+
240111 K35  0.1-  0.1-    240112 L04  0.2+  0.3+    240119 Y98  0.1-  0.2-
240111 K35  0.1+  0.2+    240112 L04  0.2+  0.4-    240119 L87  0.1-  0.2-
240111 K35  0.0   0.0     240112 104  0.1-  0.3+    240119 L87  0.2-  0.1+
240111 587  0.3+  0.2-    240112 104  0.1-  0.1+    240119 G96  0.2-  0.2-
240111 587  0.1+  0.2-    240112 104  0.1-  0.2+    240119 G96  0.1-  0.1-
240111 B72  0.1+  0.1+    240112 K83  0.2-  0.2+    240119 G96  0.2-  0.1-
240111 587  0.2-  0.2-    240112 K83  0.2-  0.4+    240119 G96  0.1-  0.0
240111 B72  0.0   0.1+    240112 K83  0.2-  0.1+    240119 T08  0.0   0.3+
240111 B72  0.2+  0.2+    240112 K63  0.2+  0.1+    240119 T08  0.4+  0.9+
240111 B72  0.0   0.0     240112 K63  0.2+  0.2-    240119 T08  0.1+  0.0
240111 B72  0.0   0.0     240112 K63  0.2+  0.1+    240119 T08  0.0   0.2+
240111 B72  0.0   0.1+    240112 K19  0.0   0.3-    240119 T08  0.1-  0.7-
240111 B72  0.0   0.0     240112 K19  0.3-  0.1+    240119 T08  0.4+  0.7+
240111 B72  0.2-  0.0     240112 K19  0.5-  0.0     240119 T08  0.3-  0.3+
240111 B72  0.2+  0.1-    240112 C82 (1.0-  0.9-)   240119 033  0.0   0.1+
240111 L01  0.1+  0.2+    240112 C82  0.2-  0.0     240119 033  0.3-  0.2+
240111 L01  0.0   0.2+    240112 C82  0.5-  0.4-    240119 033  0.3-  0.0
240111 L01  0.2+  0.2+    240112 C82  0.2+  0.2-    240119 033  0.1-  0.1-
240111 L01  0.0   0.2+    240112 K38  0.3-  0.2-    240120 H21  0.0   0.3-
240111 L01  0.1-  0.0     240112 K38  0.2-  0.1-    240120 H21  0.2+  0.4+
240111 203  0.7+  0.4+    240112 K38  0.0   0.3-    240120 H21  0.0   0.1+
240111 L01  0.0   0.2+    240113 C95  0.0   0.4-    240120 H21  0.1-  0.2-
240111 L01  0.2+  0.0     240113 C95  0.1-  0.2-    240120 H21  0.1-  0.0
240111 L01  0.3+  0.5+    240113 C95  0.2+  0.7+    240120 T05  0.1-  0.3+
240111 L01  0.2+  0.3+    240114 203  0.0   0.0     240120 T05  0.3+  0.3-
240111 L01  0.2+  0.3+    240114 203  0.0   0.2+    240120 T05  0.1-  0.2+
240111 203  0.5+  0.1+    240115 Z80 (1.3+  0.6+)   240120 T05  0.6+  0.1-
240111 203  0.1-  0.1+    240115 Z80  1.1+  0.1+    240120 033  0.2+  0.2+
240112 K74  0.0   0.2-    240115 Z80  0.0   0.2+    240120 033  0.1+  0.1+
240112 K74  0.1-  0.1+    240115 J95  0.1+  0.1-    240120 033  0.0   0.1+
240112 511  1.2-  1.4-    240115 J95  0.1+  0.1+    240120 K87  0.1+  0.1-
240112 K74  0.4-  0.1-    240115 J95  0.0   0.0     240120 246  0.5+  0.4-
240112 511  0.1+  0.2+    240115 J95  0.1-  0.0     240120 246  0.3+  0.4+
240112 K74  0.3+  0.4+    240115 130  0.0   0.0     240120 246  0.3-  0.1-
240112 K74  0.1+  0.1-    240115 130  0.2+  0.2+    240120 246  0.1+  0.6+
240112 511  0.5-  0.6-    240115 130  0.2-  0.0     240120 246  0.2+  0.4+
240112 511  0.1-  0.2-    240116 703  0.0   0.3-    240120 K87  0.3+  0.2-
240112 L01  0.1+  0.3+    240116 703  0.8-  0.7-    240121 033  0.2-  0.3-
240112 L01  0.1+  0.2+    240116 703  0.2+  0.5+    240121 033  0.2-  0.5-
240112 L01  0.1+  0.3+    240116 703  0.5+  0.2+    240121 033  0.2-  0.3-
240112 L01  0.1+  0.2+    240116 T08  0.3-  1.1-    240216 291  0.4+  0.1+
240112 L01  0.1+  0.2+    240116 T08  0.1+  0.3+    240216 291  0.0   0.2+
240112 204  0.2-  0.3+    240116 T08  0.3+  0.3+    240216 291  0.0   0.0
240112 204  0.2-  0.0     240116 T08  0.3-  0.2-
Ephemeris:
2024 AW3                 a,e,i = 1.49, 0.46, 33                  q = 0.7974
Date    TT    R. A. (2000) Decl.     Delta      r    Elong.  Phase     V
2024 01 23    07 00 06.0 +20 29 14   0.1860  1.1624   161.8    15.3    19.3
...
2024 02 07    06 38 42.5 +00 25 33   0.3566  1.2724   137.6    31.5    21.4
...
2024 02 15    06 38 35.6 -03 19 50   0.4614  1.3299   129.6    34.9    22.1
...
2024 02 21    06 40 49.6 -04 58 16   0.5433  1.3722   124.6    36.4    22.6
2024 02 22    06 41 20.6 -05 10 52   0.5571  1.3791   123.8    36.6    22.7
2024 02 23    06 41 53.8 -05 22 35   0.5710  1.3861   123.1    36.7    22.7
...
2024 02 29    06 45 53.9 -06 17 39   0.6554  1.4272   118.8    37.4    23.1
...
2024 03 08    06 52 45.2 -07 02 20   0.7701  1.4806   113.7    37.9    23.6
...
2024 03 23    07 09 09.2 -07 41 45   0.9897  1.5756   105.0    37.7    24.2
A. U. Tomatic                (C) Copyright 2024 MPC           M.P.E.C. 2024-D109
    
    
More information about the Iaude
mailing list